Regional Weather Roundup
Issued by NWS

Home | Current Version | Previous Version | Text Only | Print | Product List | Glossary On
Versions: 1 2 3 4 5 6 7 8 9 10 11 12 13 14 15 16 17 18 19 20 21 22 23 24 25 26 27 28 29 30 31 32 33 34 35 36 37 38 39 40 41 42 43 44 45 46 47 48 49 50
501
ASUS42 KKEY 291510
RWRKEY

FLORIDA REGIONAL WEATHER ROUNDUP FOR THE FLORIDA KEYS
NATIONAL WEATHER SERVICE KEY WEST FLORIDA
1100 AM EDT WED MAR 29 2017

...SOUTH FLORIDA AND THE KEYS...

CITY           SKY/WX    TMP DP  RH WIND       PRES   REMARKS
FORT MYERS     SUNNY     82  62  50 S6        30.06R
SW REGIONAL AP SUNNY     79  61  53 VRB6      30.06R
NAPLES         MOSUNNY   79  66  64 SW7       30.06R
MIAMI          MOSUNNY   81  65  58 SE6       30.06R
WEST KENDALL   SUNNY     79  63  57 VRB5      30.06R
HOMESTEAD      SUNNY     80  66  61 E8        30.05R
MARATHON       MOSUNNY   82  67  60 SE7       30.05R
BOCA CHICA NAS MOSUNNY   81  66  60 SE13      30.05R
KEY WEST INTL  MOSUNNY   80  65  59 SE12      30.06R

...INTERNATIONAL WEATHER...

CITY           SKY/WX    TMP DP  RH WIND       PRES   REMARKS
NASSAU BAHAMAS MOSUNNY   79  64  61 SE7       30.08R
CANCUN MEXICO  MOSUNNY   82  66  57 SE22      29.95S
COZUMEL MEXICO MOSUNNY   82  68  61 SE15      29.94R

ADJACENT COASTAL WATERS...

STATION/POSITION TIME  SKY/WX   TEMP    WIND        PRES    WAVE
                                AIR SEA DIR/SP/G            HT/PER
                 (UTC)          (F)     (DEG/KT/KT) (MB)    (FT/S)
PULASKI SHOAL LI 1500            77     140/ 13/ 14 1017.5R
SAND KEY         1450            77     150/ 12/ 14 1018.1R
LONG KEY         1400            76 77  160/  9/ 10 1017.5R
MOLASSES REEF    1500            76 78  170/  6/  7 1018.1R
FOWEY ROCKS      1500            78 77  160/  8/  9 1018.6R
Buoy 42097       1500                                 N/A     1/ 3

$$




USA.gov is the U.S. government's official web portal to all federal, state and local government web resources and services.